CSG-1

Last updated on Wed Sep 17 2025 00:02:31 GMT+0000 (Coordinated Universal Time)

1 44873U 19092A 25259.63377925 .00000507 00000+0 70290-4 0 9995 2 44873 97.8902 82.2135 0001378 87.7625 272.3746 14.82152098310957
UTC large
Height (km)
Speed (km/s)
/
Latitude / Longitude
Inclination (degrees)
Orbital Period (minutes)
Azimuth
Elevation
Range (km)
Doppler Factor

Next 0 passes for location: London (51.5072 / 0.1276)

Sorry there are no passes over London.